This is the latest recevied weather packets stored in our database for station/object VK4AB-13. If no packets are shown the sender has not sent any weather packets the latest 10 day(s).
| Time | Temp. | Humidity | Pressure | Rain* | Wind** | Luminosity | Snow |
|---|---|---|---|---|---|---|---|
| 1777692533 | 25° C | 64% | 1019.4 hPa | 0 mm | - | 243 W/m² | - |
| 1777692233 | 25° C | 63% | 1019.5 hPa | 0 mm | - | 304 W/m² | - |
| 1777691933 | 25° C | 62% | 1019.4 hPa | 0 mm | - | 239 W/m² | - |
| 1777691633 | 25.56° C | 62% | 1019.4 hPa | 0 mm | - | 248 W/m² | - |
| 1777691333 | 25.56° C | 64% | 1019.4 hPa | 0 mm | - | 274 W/m² | - |
| 1777691033 | 25° C | 65% | 1019.5 hPa | 0 mm | - | 670 W/m² | - |
| 1777690733 | 25.56° C | 64% | 1019.6 hPa | 0 mm | - | 223 W/m² | - |
| 1777690433 | 26.11° C | 62% | 1019.6 hPa | 0 mm | - | 176 W/m² | - |
| 1777690133 | 26.11° C | 60% | 1019.6 hPa | 0.25 mm | - | 304 W/m² | - |
| 1777689833 | 26.11° C | 59% | 1019.6 hPa | 0.25 mm | - | 171 W/m² | - |
| 1777689533 | 25.56° C | 62% | 1019.6 hPa | 0.25 mm | - | 717 W/m² | - |
| 1777689233 | 25.56° C | 63% | 1019.8 hPa | 0.25 mm | - | 218 W/m² | - |
| 1777688933 | 25.56° C | 63% | 1019.8 hPa | 0.25 mm | - | 232 W/m² | - |
| 1777688633 | 25.56° C | 64% | 1019.9 hPa | 0.25 mm | - | 243 W/m² | - |
| 1777688333 | 25.56° C | 66% | 1019.9 hPa | 0.25 mm | - | 740 W/m² | - |
| 1777688033 | 25° C | 66% | 1020.1 hPa | 0.25 mm | - | 707 W/m² | - |
| 1777687734 | 25° C | 67% | 1020.3 hPa | 0.25 mm | - | 193 W/m² | - |
| 1777687433 | 25° C | 69% | 1020.3 hPa | 0.25 mm | - | 740 W/m² | - |
| 1777687133 | 24.44° C | 71% | 1020.5 hPa | 0.25 mm | - | 842 W/m² | - |
| 1777686835 | 24.44° C | 71% | 1020.5 hPa | 0.25 mm | - | 204 W/m² | - |
| 1777686533 | 25° C | 71% | 1020.5 hPa | 0 mm | - | 153 W/m² | - |
| 1777686233 | 25° C | 69% | 1020.5 hPa | 0 mm | - | 858 W/m² | - |
| 1777685933 | 24.44° C | 72% | 1020.6 hPa | 0 mm | - | 779 W/m² | - |
| 1777685633 | 24.44° C | 71% | 1020.8 hPa | 0 mm | - | 264 W/m² | - |
| 1777685333 | 24.44° C | 70% | 1021 hPa | 0 mm | - | 174 W/m² | - |
* Rain latest hour (hover to see other rain measurements)
** Current wind speed in m/s (hover to see current wind gust speed)